Simultaneous Nadir Overpasses (SNOs) Predictions

Prediction of SNOs between GOES-15 and METOP-C Satellite Orbit:

Table of predicted SNOs for the next 14.0 days since TLE Epoch: 1/21/2023
Index Date Time (GOES-15) GOES-15 Lat,Lon METOP-C Lat,Lon Distance(km) Time Diff (sec)
1 01/21/2023 18:00:44 -0.02,-128.15 -0.25,-127.25 104.29 80
2 01/23/2023 06:19:46 0.02,-128.23 -0.80,-131.84 412.23 80
3 01/24/2023 05:56:28 0.01,-128.24 0.32,-126.85 157.76 80
4 01/25/2023 18:15:20 -0.01,-128.20 0.68,-131.42 366.47 80
5 01/26/2023 17:57:21 -0.01,-128.21 -0.38,-126.42 203.60 80
6 01/28/2023 06:16:24 0.01,-128.28 -0.60,-131.03 313.10 80
7 01/29/2023 05:53:06 0.01,-128.29 0.53,-126.04 256.60 80
8 01/30/2023 18:11:57 -0.01,-128.24 0.51,-130.60 268.35 80
9 01/31/2023 17:53:57 -0.01,-128.24 -0.57,-125.60 301.13 80
10 02/02/2023 06:12:30 0.00,-128.31 -0.40,-130.21 216.42 49
11 02/03/2023 05:49:41 0.00,-128.31 0.68,-125.21 352.79 80
